This is the latest recevied weather packets stored in our database for station/object DG7YEO-13. If no packets are shown the sender has not sent any weather packets the latest 10 day(s).
| Time | Temp. | Humidity | Pressure | Rain* | Wind** | Luminosity | Snow |
|---|---|---|---|---|---|---|---|
| 1787663825 | 23.89° C | 52% | 1014.3 hPa | 0 mm | - | - | - |
| 1787662925 | 23.89° C | 52% | 1014.3 hPa | 0 mm | - | - | - |
| 1787662025 | 24.44° C | 51% | 1014.3 hPa | 0 mm | - | - | - |
| 1787661125 | 23.89° C | 52% | 1014.4 hPa | 0 mm | - | - | - |
| 1787660225 | 23.89° C | 51% | 1014.3 hPa | 0 mm | - | - | - |
| 1787659325 | 23.89° C | 51% | 1014.4 hPa | 0 mm | - | - | - |
| 1787658425 | 23.89° C | 50% | 1014.5 hPa | 0 mm | - | - | - |
| 1787657525 | 23.33° C | 51% | 1014.4 hPa | 0 mm | - | - | - |
| 1787656625 | 23.89° C | 50% | 1014.6 hPa | 0 mm | - | - | - |
| 1787655725 | 23.89° C | 49% | 1014.7 hPa | 0 mm | - | - | - |
| 1787654825 | 23.89° C | 51% | 1014.7 hPa | 0 mm | - | - | - |
| 1787653925 | 23.33° C | 52% | 1015 hPa | 0 mm | - | - | - |
| 1787653024 | 22.78° C | 52% | 1015 hPa | 0 mm | - | - | - |
| 1787652125 | 22.22° C | 54% | 1015.2 hPa | 0 mm | - | - | - |
| 1787651225 | 22.22° C | 55% | 1015.2 hPa | 0 mm | - | - | - |
| 1787650325 | 21.67° C | 56% | 1015.2 hPa | 0 mm | - | - | - |
| 1787649425 | 21.67° C | 57% | 1015.2 hPa | 0 mm | - | - | - |
| 1787648525 | 21.11° C | 59% | 1015.2 hPa | 0 mm | - | - | - |
| 1787647625 | 20.56° C | 61% | 1015.2 hPa | 0 mm | - | - | - |
| 1787646725 | 20° C | 63% | 1015.2 hPa | 0 mm | - | - | - |
| 1787645825 | 19.44° C | 64% | 1015.2 hPa | 0 mm | - | - | - |
| 1787644925 | 18.89° C | 65% | 1015.2 hPa | 0 mm | - | - | - |
| 1787644025 | 18.89° C | 65% | 1015.3 hPa | 0 mm | - | - | - |
| 1787643125 | 18.33° C | 68% | 1015.2 hPa | 0 mm | - | - | - |
| 1787642225 | 17.78° C | 69% | 1015.1 hPa | 0 mm | - | - | - |
* Rain latest hour (hover to see other rain measurements)
** Current wind speed in m/s (hover to see current wind gust speed)